Location: Burbank
(38.7788°N, 114.0429°W)
Time: 23:09:48
(UTC+00:00)

S-56A Canister/Altair - Pass Details

Date: 18 May 2026
Orbit: 633 x 2484 km, 38.9° (Epoch: 1 June)

Event Time Altitude Azimuth Distance (km) Brightness Sun altitude
Rises 08:44:25 0° 277° (W) 3,067 - -29.3°
Reaches altitude 10° 08:46:50 10° 264° (W) 2,271 - -29.1°
Maximum altitude 08:51:13 27° 207° (SSW) 1,641 - -28.8°
Drops below altitude 10° 08:56:57 10° 152° (SSE) 3,023 - -28.4°
Sets 09:00:44 0° 142° (SE) 4,316 - -28.1°
